KC4BAM Weather Reports


time (UTC)temp
F
wind
direction
speed
knots
gust
knots
rain 1hr
in
rain 24hr
in
rain mn
in
humidity
%
barometer
mb
20260906121032 75 193 0.0 0.0 0.00 0.00 0.00 91 1004.0
20260906120527 75 193 0.0 0.0 0.00 0.00 0.00 91 1004.1
20260906120026 75 193 0.0 0.0 0.00 0.00 0.00 91 1004.0
20260906115525 75 194 0.0 0.0 0.00 0.00 0.00 91 1003.8
20260906115020 75 205 0.9 0.9 0.00 0.00 0.00 91 1003.8
20260906114520 75 191 0.0 0.0 0.00 0.00 0.00 91 1003.9
20260906114016 75 189 0.0 0.0 0.00 0.00 0.00 91 1003.6
20260906113514 75 188 0.0 0.0 0.00 0.00 0.00 91 1003.7
20260906113010 75 192 0.0 0.0 0.00 0.00 0.00 91 1003.6
20260906112505 75 191 0.0 0.0 0.00 0.00 0.00 91 1003.4
20260906112001 75 191 0.0 0.0 0.00 0.00 0.00 90 1003.4
20260906111500 75 191 0.0 0.0 0.00 0.00 0.00 90 1003.4
20260906110955 75 190 0.0 0.0 0.00 0.00 0.00 90 1003.2
20260906110450 75 190 0.0 0.0 0.00 0.00 0.00 90 1003.2
20260906105949 75 190 0.0 0.0 0.00 0.00 0.00 90 1003.0
20260906105445 75 189 0.0 0.0 0.00 0.00 0.00 89 1003.1
20260906104941 75 189 0.0 0.0 0.00 0.00 0.00 89 1003.1
20260906104440 75 192 0.0 0.0 0.00 0.00 0.00 89 1003.1
20260906103939 75 192 0.0 0.0 0.00 0.00 0.00 89 1003.0
20260906103437 75 191 0.0 0.0 0.00 0.00 0.00 88 1002.9
20260906102932 75 187 0.0 0.0 0.00 0.00 0.00 88 1002.7
20260906102427 76 189 0.0 0.0 0.00 0.00 0.00 87 1002.5
20260906101922 76 192 0.0 0.0 0.00 0.00 0.00 87 1002.7
20260906101417 76 192 0.0 0.9 0.00 0.00 0.00 87 1002.7
20260906100913 76 190 0.0 0.0 0.00 0.00 0.00 86 1002.5
20260906100412 77 189 0.0 0.0 0.00 0.00 0.00 86 1002.6
20260906095907 77 191 0.0 0.0 0.00 0.00 0.00 85 1002.5
20260906095403 77 191 0.0 0.0 0.00 0.00 0.00 85 1002.5
20260906094901 77 190 0.0 0.0 0.00 0.00 0.00 84 1002.6
20260906094356 77 190 0.0 0.0 0.00 0.00 0.00 84 1002.4
20260906093853 78 189 0.0 0.0 0.00 0.00 0.00 84 1002.8
20260906093349 78 186 0.0 0.0 0.00 0.00 0.00 84 1002.5
20260906092843 78 187 0.0 0.0 0.00 0.00 0.00 83 1002.6
20260906092343 78 196 0.0 0.9 0.00 0.00 0.00 82 1002.7
20260906091839 78 193 0.0 0.9 0.00 0.00 0.00 82 1002.6
20260906091335 78 191 0.0 0.0 0.00 0.00 0.00 82 1002.4
20260906090826 79 194 0.0 0.0 0.00 0.00 0.00 81 1002.4
20260906090324 79 195 0.0 0.0 0.00 0.00 0.00 81 1002.2
20260906085819 80 195 0.0 0.9 0.00 0.00 0.00 80 1002.3
20260906085318 80 191 1.7 1.7 0.00 0.00 0.00 80 1002.4
20260906084812 80 202 0.9 1.7 0.00 0.00 0.00 79 1002.4
20260906084312 80 195 0.9 2.6 0.00 0.00 0.00 79 1002.3
20260906083807 80 185 2.6 2.6 0.00 0.00 0.00 79 1002.3
20260906083303 80 249 1.7 2.6 0.00 0.00 0.00 78 1002.4
20260906082757 80 193 1.7 2.6 0.00 0.00 0.00 78 1002.2
20260906082252 80 196 1.7 2.6 0.00 0.00 0.00 78 1002.0
20260906081748 80 200 0.9 0.9 0.00 0.00 0.00 77 1002.2
20260906081244 80 197 0.9 2.6 0.00 0.00 0.00 77 1002.2
20260906080740 80 196 1.7 2.6 0.00 0.00 0.00 77 1002.0
20260906080236 80 185 0.9 2.6 0.00 0.00 0.00 77 1002.3
20260906075735 81 201 2.6 3.5 0.00 0.00 0.00 76 1002.2
20260906075230 81 189 1.7 2.6 0.00 0.00 0.00 76 1002.4
20260906074726 81 197 1.7 1.7 0.00 0.00 0.00 76 1002.5
20260906074225 81 191 0.9 1.7 0.00 0.00 0.00 76 1002.4
20260906073724 81 185 0.9 2.6 0.00 0.00 0.00 76 1002.5
20260906073219 81 203 0.0 1.7 0.00 0.00 0.00 76 1002.4
20260906072715 81 191 0.9 1.7 0.00 0.00 0.00 75 1002.8
20260906072210 81 194 0.0 0.9 0.00 0.00 0.00 75 1002.6
20260906071706 81 197 0.9 3.5 0.00 0.00 0.00 75 1002.5
20260906071201 81 214 1.7 2.6 0.00 0.00 0.00 76 1002.6
20260906070657 81 183 0.9 2.6 0.00 0.00 0.00 76 1002.6
20260906070153 81 199 1.7 1.7 0.00 0.00 0.00 77 1002.5
20260906065652 81 196 0.9 1.7 0.00 0.00 0.00 77 1002.6
20260906065148 81 202 1.7 2.6 0.00 0.00 0.00 77 1002.7
20260906064643 81 199 0.9 1.7 0.00 0.00 0.00 78 1002.6
20260906064138 80 200 1.7 1.7 0.00 0.00 0.00 78 1002.7
20260906063633 80 196 0.9 1.7 0.00 0.00 0.00 78 1002.7
20260906063129 80 190 0.0 1.7 0.00 0.00 0.00 78 1002.8
20260906062625 80 203 0.9 1.7 0.00 0.00 0.00 79 1002.8
20260906062124 80 189 0.0 0.9 0.00 0.00 0.00 79 1002.9
20260906061620 80 191 0.9 0.9 0.00 0.00 0.00 80 1002.7
20260906061119 79 187 0.0 0.9 0.00 0.00 0.00 80 1002.9
20260906060616 79 150 0.9 1.7 0.00 0.00 0.00 80 1003.0
20260906060114 79 137 0.9 1.7 0.00 0.00 0.00 80 1002.8
20260906055609 79 189 0.0 0.0 0.00 0.00 0.00 80 1002.8
20260906055104 80 186 0.0 1.7 0.00 0.00 0.00 79 1002.9
20260906054604 80 189 0.0 0.0 0.00 0.00 0.00 79 1002.8
20260906054059 80 186 0.9 0.9 0.00 0.00 0.00 79 1002.8
20260906053555 80 170 0.9 1.7 0.00 0.00 0.00 79 1002.8
20260906053051 80 187 0.0 0.0 0.00 0.00 0.00 79 1002.8
20260906052546 80 187 0.0 2.6 0.00 0.00 0.00 78 1003.0
20260906052043 80 188 0.0 0.9 0.00 0.00 0.00 78 1002.9
20260906051538 80 176 0.0 0.9 0.00 0.00 0.00 78 1002.9
20260906051034 80 186 0.0 0.0 0.00 0.00 0.00 78 1003.0
20260906050529 81 189 0.0 0.9 0.00 0.00 0.00 77 1002.8
20260906050024 81 191 0.0 0.0 0.00 0.00 0.00 77 1003.0
20260906045522 81 186 0.0 0.0 0.00 0.00 0.00 76 1003.0
20260906045018 81 188 1.7 1.7 0.00 0.00 0.00 76 1003.1
20260906044508 82 186 0.0 0.9 0.00 0.00 0.00 76 1002.9
20260906044004 82 223 1.7 2.6 0.00 0.00 0.00 76 1003.1
20260906043458 82 186 0.0 0.0 0.00 0.00 0.00 76 1003.5
20260906042949 82 195 0.0 2.6 0.00 0.00 0.00 75 1003.2
20260906042448 82 189 0.0 0.9 0.00 0.00 0.00 76 1003.2
20260906041948 82 193 0.0 0.0 0.00 0.00 0.00 76 1003.0
20260906041444 82 178 0.9 0.9 0.00 0.00 0.00 77 1003.0
20260906040943 81 182 0.9 0.9 0.00 0.00 0.00 79 1003.2
20260906040438 81 186 0.0 0.0 0.00 0.00 0.00 79 1002.8
20260906035933 82 183 0.0 0.0 0.00 0.00 0.00 78 1002.8
20260906035429 82 192 0.0 0.0 0.00 0.00 0.00 78 1002.8
20260906034925 82 190 0.0 0.0 0.00 0.00 0.00 78 1002.9
20260906034419 83 197 0.0 0.9 0.00 0.00 0.00 77 1002.9
20260906033915 83 189 0.0 0.0 0.00 0.00 0.00 75 1002.9
20260906033414 83 196 0.0 0.0 0.00 0.00 0.00 76 1002.9
20260906032911 83 189 0.0 0.0 0.00 0.00 0.00 75 1002.9
20260906032407 83 189 0.0 0.0 0.00 0.00 0.00 75 1003.0
20260906031906 82 189 0.0 0.0 0.00 0.00 0.00 75 1002.8
20260906031402 83 184 0.0 0.0 0.00 0.00 0.00 75 1002.7
20260906030857 83 186 0.0 0.0 0.00 0.00 0.00 75 1002.5
20260906030352 83 190 0.0 0.0 0.00 0.00 0.00 75 1002.3
20260906025847 83 190 0.0 0.0 0.00 0.00 0.00 75 1002.3
20260906025341 83 191 0.0 0.0 0.00 0.00 0.00 74 1002.4
20260906024840 83 190 0.0 0.0 0.00 0.00 0.00 74 1002.3
20260906024339 84 190 0.0 0.0 0.00 0.00 0.00 74 1002.1
20260906023835 83 191 0.0 0.0 0.00 0.00 0.00 73 1002.1
20260906023331 83 190 0.0 0.0 0.00 0.00 0.00 73 1001.9
20260906022826 84 190 0.0 0.0 0.00 0.00 0.00 73 1001.9
20260906022321 83 190 0.0 0.0 0.00 0.00 0.00 73 1001.7
20260906021817 83 190 0.0 0.0 0.00 0.00 0.00 73 1001.9
20260906021315 84 190 0.0 0.0 0.00 0.00 0.00 72 1001.7
20260906020810 84 190 0.0 0.0 0.00 0.00 0.00 72 1001.5
20260906020310 84 190 0.0 0.0 0.00 0.00 0.00 72 1001.5
20260906015804 84 190 0.0 0.0 0.00 0.00 0.00 72 1001.6
20260906015305 84 190 0.0 0.0 0.00 0.00 0.00 71 1001.5
20260906014803 84 190 0.0 0.0 0.00 0.00 0.00 71 1001.6
20260906014258 84 193 0.0 0.0 0.00 0.00 0.00 71 1001.5
20260906013755 85 192 0.0 0.0 0.00 0.00 0.00 71 1001.4
20260906013255 85 192 0.0 0.0 0.00 0.00 0.00 71 1001.3
20260906012750 86 193 0.0 0.0 0.00 0.00 0.00 70 1001.3
20260906012245 86 193 0.0 0.0 0.00 0.00 0.00 69 1001.3
20260906011741 86 193 0.0 0.0 0.00 0.00 0.00 68 1001.4
20260906011240 86 193 0.0 0.0 0.00 0.00 0.00 67 1001.4
20260906010736 87 193 0.0 0.0 0.00 0.00 0.00 65 1001.4
20260906010232 87 193 0.0 0.0 0.00 0.00 0.00 65 1001.3
20260906005727 87 193 0.0 0.0 0.00 0.00 0.00 65 1001.4
20260906005220 87 192 0.0 0.0 0.00 0.00 0.00 65 1001.4
20260906004719 88 192 0.0 0.0 0.00 0.00 0.00 65 1001.5
20260906004214 88 194 0.0 0.0 0.00 0.00 0.00 64 1001.4
20260906003709 88 192 0.0 0.0 0.00 0.00 0.00 63 1001.6
20260906003205 89 192 0.0 0.0 0.00 0.00 0.00 62 1001.7
20260906002705 90 191 0.0 0.0 0.00 0.00 0.00 61 1001.5
20260906002200 90 193 0.0 0.0 0.00 0.00 0.00 61 1001.4
20260906001655 91 193 0.0 0.0 0.00 0.00 0.00 59 1001.4
20260906001150 91 192 0.0 0.9 0.00 0.00 0.00 59 1001.7
20260906000646 90 194 0.0 0.0 0.00 0.00 0.00 59 1001.5
20260906000141 91 193 0.0 0.0 0.00 0.00 0.00 59 1001.5
20260905235640 91 193 0.0 0.0 0.00 0.00 0.00 58 1001.5
20260905235135 91 183 0.0 0.9 0.00 0.00 0.00 58 1001.3
20260905234630 91 193 0.0 0.0 0.00 0.00 0.00 58 1001.4
20260905234126 92 193 0.0 0.0 0.00 0.00 0.00 58 1001.5
20260905233626 93 191 0.0 0.0 0.00 0.00 0.00 57 1001.3
20260905233120 93 189 0.0 0.9 0.00 0.00 0.00 57 1001.4
20260905232615 93 193 0.0 0.9 0.00 0.00 0.00 57 1001.4
20260905232111 94 193 0.0 0.0 0.00 0.00 0.00 57 1001.5
20260905231606 94 189 0.0 0.9 0.00 0.00 0.00 56 1001.4
20260905231102 95 195 0.0 0.0 0.00 0.00 0.00 54 1001.5
20260905230602 95 193 0.0 0.0 0.00 0.00 0.00 55 1001.4
20260905225600 95 189 0.0 0.0 0.00 0.00 0.00 54 1001.4
20260905225055 96 201 0.9 0.9 0.00 0.00 0.00 53 1001.3
20260905224555 97 194 0.0 0.9 0.00 0.00 0.00 53 1001.3
20260905224055 97 196 0.9 2.6 0.00 0.00 0.00 52 1001.3
20260905223553 96 225 3.5 5.2 0.00 0.00 0.00 53 1001.4
20260905223048 96 198 0.0 0.9 0.00 0.00 0.00 53 1001.3
20260905222542 97 190 0.0 0.0 0.00 0.00 0.00 52 1001.2
20260905222038 97 191 0.0 0.0 0.00 0.00 0.00 52 1001.0
20260905221534 98 195 0.0 0.9 0.00 0.00 0.00 51 1001.4
20260905221030 98 197 0.9 7.0 0.00 0.00 0.00 49 1001.3
20260905220525 99 219 1.7 2.6 0.00 0.00 0.00 50 1001.4
20260905220021 98 236 0.9 2.6 0.00 0.00 0.00 48 1001.4
20260905215515 98 195 0.0 0.9 0.00 0.00 0.00 51 1001.3
20260905215012 99 193 0.0 0.9 0.00 0.00 0.00 48 1001.3
20260905214508 100 197 0.0 3.5 0.00 0.00 0.00 46 1001.4
20260905214008 100 212 1.7 5.2 0.00 0.00 0.00 46 1001.3
20260905213504 101 188 0.9 1.7 0.00 0.00 0.00 46 1001.5
20260905213004 102 197 0.0 1.7 0.00 0.00 0.00 44 1001.5
20260905212459 101 207 1.7 3.5 0.00 0.00 0.00 44 1001.4
20260905211958 102 192 0.0 0.9 0.00 0.00 0.00 46 1001.4
20260905211453 101 206 1.7 3.5 0.00 0.00 0.00 43 1001.4
20260905210949 102 200 0.9 0.9 0.00 0.00 0.00 45 1001.5
20260905210444 101 192 0.9 1.7 0.00 0.00 0.00 45 1001.7
20260905205944 102 195 0.0 0.9 0.00 0.00 0.00 44 1001.6
20260905205439 102 222 1.7 2.6 0.00 0.00 0.00 43 1001.5
20260905204937 101 194 1.7 3.5 0.00 0.00 0.00 43 1001.6
20260905204433 102 211 3.5 5.2 0.00 0.00 0.00 44 1001.8
20260905203932 102 209 0.9 2.6 0.00 0.00 0.00 44 1001.8
20260905203428 102 198 1.7 5.2 0.00 0.00 0.00 44 1002.0
20260905202923 102 199 1.7 2.6 0.00 0.00 0.00 44 1002.0
20260905202419 102 202 0.9 1.7 0.00 0.00 0.00 43 1002.2
20260905201914 100 234 1.7 2.6 0.00 0.00 0.00 45 1002.3
20260905201409 101 201 0.9 0.9 0.00 0.00 0.00 47 1002.4
20260905200904 101 205 3.5 3.5 0.00 0.00 0.00 44 1002.6
20260905200400 101 245 1.7 3.5 0.00 0.00 0.00 45 1002.4
20260905195857 101 217 4.3 6.1 0.00 0.00 0.00 45 1002.7
20260905195353 100 227 1.7 6.1 0.00 0.00 0.00 45 1002.7
20260905194849 100 175 3.5 5.2 0.00 0.00 0.00 45 1002.7
20260905194348 100 228 3.5 3.5 0.00 0.00 0.00 45 1002.6
20260905193847 100 199 3.5 8.7 0.00 0.00 0.00 46 1002.7
20260905193342 102 198 4.3 5.2 0.00 0.00 0.00 45 1002.7
20260905192838 101 200 1.7 3.5 0.00 0.00 0.00 45 1002.8
20260905192334 102 214 2.6 3.5 0.00 0.00 0.00 45 1002.8
20260905191833 102 200 1.7 3.5 0.00 0.00 0.00 44 1003.1
20260905191332 100 194 0.0 0.9 0.00 0.00 0.00 47 1003.2
20260905190831 101 197 0.0 1.7 0.00 0.00 0.00 47 1003.2
20260905190325 99 197 0.9 1.7 0.00 0.00 0.00 47 1003.3
20260905185823 97 197 0.9 3.5 0.00 0.00 0.00 50 1003.2
20260905185319 96 197 0.0 0.9 0.00 0.00 0.00 54 1003.2
20260905184812 97 204 0.9 1.7 0.00 0.00 0.00 51 1003.4
20260905184311 97 198 0.0 0.9 0.00 0.00 0.00 48 1003.3
20260905183810 98 196 1.7 3.5 0.00 0.00 0.00 47 1003.5
20260905183306 100 191 0.0 0.9 0.00 0.00 0.00 47 1003.4
20260905182800 98 192 0.0 1.7 0.00 0.00 0.00 48 1003.6
20260905182300 98 160 0.9 1.7 0.00 0.00 0.00 49 1003.6
20260905181755 98 187 0.0 2.6 0.00 0.00 0.00 49 1003.7
20260905181254 97 192 0.0 0.0 0.00 0.00 0.00 51 1003.8
20260905180749 96 194 0.0 0.0 0.00 0.00 0.00 51 1004.0
20260905180244 98 191 0.0 0.9 0.00 0.00 0.00 50 1004.1
20260905175744 99 195 0.0 0.0 0.00 0.00 0.00 48 1004.1
20260905175239 99 196 0.0 0.9 0.00 0.00 0.00 46 1004.1
20260905174734 99 196 0.9 0.9 0.00 0.00 0.00 47 1004.2
20260905174230 99 198 0.0 0.9 0.00 0.00 0.00 47 1004.2
20260905173726 100 198 0.0 1.7 0.00 0.00 0.00 47 1004.1
20260905173221 100 197 1.7 3.5 0.00 0.00 0.00 47 1004.1
20260905172721 99 192 0.0 0.9 0.00 0.00 0.00 49 1004.0
20260905172215 99 201 0.9 1.7 0.00 0.00 0.00 50 1004.1
20260905171711 98 191 0.0 0.9 0.00 0.00 0.00 50 1004.2
20260905171207 98 209 0.9 2.6 0.00 0.00 0.00 48 1004.4
20260905170704 99 198 0.0 1.7 0.00 0.00 0.00 50 1004.6
20260905170203 99 225 2.6 2.6 0.00 0.00 0.00 49 1004.5
20260905165658 98 194 1.7 2.6 0.00 0.00 0.00 50 1004.5
20260905165153 98 198 0.9 1.7 0.00 0.00 0.00 49 1004.6
20260905164648 98 194 0.0 0.9 0.00 0.00 0.00 51 1004.7
20260905164147 98 186 0.0 0.9 0.00 0.00 0.00 51 1004.8
20260905163643 97 190 0.9 2.6 0.00 0.00 0.00 50 1004.7
20260905163140 97 198 1.7 2.6 0.00 0.00 0.00 51 1004.8
20260905162636 97 214 0.9 1.7 0.00 0.00 0.00 53 1004.7
20260905162135 96 193 1.7 6.1 0.00 0.00 0.00 52 1004.9
20260905161634 98 189 0.9 2.6 0.00 0.00 0.00 50 1004.8
20260905161132 97 217 1.7 6.1 0.00 0.00 0.00 52 1004.8
20260905160626 97 196 0.0 0.9 0.00 0.00 0.00 54 1004.9
20260905160121 98 201 0.9 3.5 0.00 0.00 0.00 55 1004.8
20260905155615 98 192 0.9 1.7 0.00 0.00 0.00 53 1004.7
20260905155114 97 198 0.9 1.7 0.00 0.00 0.00 54 1005.0
20260905154608 95 182 0.0 0.0 0.00 0.00 0.00 56 1005.0
20260905154104 95 204 0.9 0.9 0.00 0.00 0.00 58 1005.1
20260905153600 95 194 0.9 0.9 0.00 0.00 0.00 57 1005.1
20260905153100 96 193 0.0 0.9 0.00 0.00 0.00 58 1005.1
20260905152555 95 195 0.0 0.9 0.00 0.00 0.00 58 1005.2
20260905152050 95 191 0.0 0.0 0.00 0.00 0.00 59 1005.4
20260905151545 95 200 0.9 0.9 0.00 0.00 0.00 60 1005.4
20260905151040 94 193 0.0 0.9 0.00 0.00 0.00 61 1005.3
20260905150535 94 193 0.0 0.9 0.00 0.00 0.00 61 1005.3
20260905150033 93 193 0.0 0.9 0.00 0.00 0.00 61 1005.5
20260905145526 93 189 0.0 0.0 0.00 0.00 0.00 62 1005.4
20260905145021 93 196 0.0 0.0 0.00 0.00 0.00 63 1005.4
20260905144516 93 194 0.9 1.7 0.00 0.00 0.00 63 1005.5
20260905144015 92 192 0.0 0.9 0.00 0.00 0.00 66 1005.4
20260905143514 93 177 0.0 0.0 0.00 0.00 0.00 66 1005.6
20260905143009 92 192 0.0 0.0 0.00 0.00 0.00 67 1005.4
20260905142508 91 185 0.0 0.0 0.00 0.00 0.00 69 1005.5
20260905142004 90 188 0.0 0.0 0.00 0.00 0.00 71 1005.5
20260905141503 90 189 0.0 0.0 0.00 0.00 0.00 73 1005.5
20260905141000 88 191 0.0 0.0 0.00 0.00 0.00 75 1005.3
20260905140454 88 190 0.0 0.0 0.00 0.00 0.00 75 1005.5
20260905135953 87 191 0.0 0.0 0.00 0.00 0.00 76 1005.7
20260905135449 87 194 0.0 0.0 0.00 0.00 0.00 76 1005.7
20260905134944 88 188 0.0 0.0 0.00 0.00 0.00 77 1005.5
20260905134443 88 187 0.0 0.0 0.00 0.00 0.00 76 1005.5
20260905133942 86 187 0.0 0.0 0.00 0.00 0.00 80 1005.4
20260905133437 85 186 0.0 0.0 0.00 0.00 0.00 82 1005.7
20260905132932 84 193 0.0 0.0 0.00 0.00 0.00 84 1005.7
20260905132427 84 193 0.0 0.0 0.00 0.00 0.00 86 1005.8
20260905131922 83 193 0.0 0.0 0.00 0.00 0.00 88 1005.6
20260905131418 83 192 0.0 0.0 0.00 0.00 0.00 89 1005.7
20260905130913 82 193 0.0 0.0 0.00 0.00 0.00 91 1005.4
20260905130412 81 193 0.0 0.0 0.00 0.00 0.00 92 1005.3
20260905125907 80 193 0.0 0.0 0.00 0.00 0.00 93 1005.5
20260905125407 79 193 0.0 0.0 0.00 0.00 0.00 94 1005.6
20260905124902 78 194 0.0 0.0 0.00 0.00 0.00 94 1005.6
20260905124359 78 194 0.0 0.0 0.00 0.00 0.00 94 1005.7
20260905123858 78 193 0.0 0.0 0.00 0.00 0.00 95 1005.6
20260905123355 77 193 0.0 0.0 0.00 0.00 0.00 95 1005.6
20260905122850 76 193 0.0 0.0 0.00 0.00 0.00 95 1005.6
20260905122349 76 194 0.0 0.0 0.00 0.00 0.00 95 1005.4
20260905121845 75 194 0.0 0.0 0.00 0.00 0.00 95 1005.4